sat.trackr.live / text

‹ back to catalog

STARLINK-4258

NORAD 53180 · 2022-083BA

PAYLOAD ACTIVE UNKNOWN

§ Identity

Operator
Country
US
Launch date
2022-07-17
Launch site
AFETR
Launch vehicle
Mass (kg)
RCS (m²)

Purposes: comms

External: N2YO · Heavens-Above · Gunter

§ Orbital elements

Epoch: 2026-09-19T19:31:25.297536Z

Period
93.90 min
Inclination
53.1607°
Eccentricity
0.0001207
Mean motion
15.33545633 rev/d
Perigee alt
464.4 km
Apogee alt
466.1 km
Semi-major
6,843.4 km
B*
4.8794e-5
RAAN
320.9693°
Arg perigee
85.8941°
Mean anomaly
274.2199°
Rev number
23,137

§ Raw data

STARLINK-42581 53180U 22083BA  26262.81348724  .00001232  00000+0  48794-4 0  99902 53180  53.1607 320.9693 0001207  85.8941 274.2199 15.33545633231376

JSON: /api/v1/satellites/53180 · /tle

For live sub-satellite position, see the globe view (requires WebGL).

§ Visibility from observer

Set your observer location to see the next 7 days of passes ≥ 10°. The values pass through the URL so the page stays shareable.

No JS? Fill the form by hand. The geolocation button needs JavaScript.